Weather History for KCDR - May, 2013

Change the Weather History Date:

Friday, May 24, 2013

  Actual Average Record
Temperature  
Mean Temperature 69 °F 59 °F  
Max Temperature 85 °F 73 °F 90 °F (1984)
Min Temperature 53 °F 44 °F 25 °F (2002)
Degree Days  
Heating Degree Days 0 7  
Month to date heating degree days 235 260  
Since 1 July heating degree days 6786 7023  
Cooling Degree Days 4 1  
Month to date cooling degree days 27 8  
Year to date cooling degree days 27 10  
Growing Degree Days 20 (Base 50)    
Moisture  
Dew Point 51 °F    
Average Humidity 49    
Maximum Humidity 84    
Minimum Humidity 14    
Precipitation  
Precipitation 0.00 in 0.09 in 1.54 in (1965)
Month to date precipitation 0.67 2.06  
Year to date precipitation 5.48 6.24  
Sea Level Pressure  
Sea Level Pressure 29.88 in    
Wind  
Wind Speed 13 mph (SSE)    
Max Wind Speed 31 mph    
Max Gust Speed 38 mph    
Visibility 10 miles    
Events      
T = Trace of Precipitation, MM = Missing Value Source: NWS Daily Summary

Daily Weather History Graph

Daily Weather History Graph

Search for Another Location

Airport or City:

Trip Planner

Search our weather history database for the weather conditions in past years. The results will help you decide how hot, cold, wet, or windy it might be!

Date:

Astronomy

May. 24, 2013 Rise Set
Actual Time 5:21 AM MDT 8:17 PM MDT
Civil Twilight 4:47 AM MDT 8:51 PM MDT
Nautical Twilight 4:05 AM MDT 9:34 PM MDT
Astronomical Twilight 3:15 AM MDT 10:24 PM MDT
Moon 8:01 PM MDT (5/24) 4:56 AM MDT (5/24)
Length of Visible Light 16h 03m
Length of Day
14h 56m
Full, 100% of the Moon is Illuminated
May 24
Full
May 24
Full
May 31
Last Quarter
Jun 8
New
Jun 16
First Quarter

Hourly Weather History & Observations

Time (MDT) Temp. Heat Index Dew Point Humidity Pressure Visibility Wind Dir Wind Speed Gust Speed Precip Events Conditions
12:53 AM 60.1 °F - 48.0 °F 64% 29.95 in 10.0 mi SSE 18.4 mph 28.8 mph N/A   Overcast
1:53 AM 60.1 °F - 48.9 °F 67% 29.93 in 10.0 mi SSE 15.0 mph 27.6 mph N/A   Overcast
2:00 AM 60.8 °F - 48.2 °F 63% 29.97 in 10.0 mi SSE 15.0 mph - N/A   Overcast
2:39 AM 59.0 °F - 50.0 °F 72% 29.94 in 10.0 mi SSE 23.0 mph 33.4 mph N/A   Mostly Cloudy
2:53 AM 59.0 °F - 50.0 °F 72% 29.90 in 10.0 mi SSE 23.0 mph 32.2 mph N/A   Scattered Clouds
3:17 AM 59.0 °F - 50.0 °F 72% 29.94 in 10.0 mi SSE 17.3 mph 28.8 mph N/A   Overcast
3:53 AM 57.9 °F - 51.1 °F 78% 29.89 in 10.0 mi South 17.3 mph 26.5 mph N/A   Overcast
4:53 AM 57.9 °F - 51.1 °F 78% 29.86 in 10.0 mi South 19.6 mph 25.3 mph N/A   Overcast
5:53 AM 57.9 °F - 52.0 °F 81% 29.86 in 10.0 mi South 19.6 mph 25.3 mph N/A   Overcast
6:53 AM 59.0 °F - 53.1 °F 81% 29.86 in 10.0 mi South 19.6 mph 26.5 mph N/A   Overcast
7:53 AM 61.0 °F - 54.0 °F 78% 29.89 in 10.0 mi South 13.8 mph - N/A   Overcast
8:53 AM 64.0 °F - 55.0 °F 73% 29.86 in 10.0 mi South 27.6 mph 38.0 mph N/A   Mostly Cloudy
9:00 AM 64.4 °F - 55.4 °F 73% 29.92 in 10.0 mi South 16.1 mph 38.0 mph N/A   Scattered Clouds
9:53 AM 66.9 °F - 55.9 °F 68% 29.90 in 10.0 mi South 26.5 mph 34.5 mph N/A   Partly Cloudy
10:53 AM 71.1 °F - 55.9 °F 59% 29.88 in 10.0 mi South 21.9 mph 33.4 mph N/A   Clear
11:53 AM 75.0 °F - 57.0 °F 53% 29.86 in 10.0 mi South 20.7 mph 26.5 mph N/A   Clear
12:53 PM 79.0 °F - 57.0 °F 47% 29.84 in 10.0 mi South 23.0 mph 26.5 mph N/A   Clear
1:53 PM 81.0 °F - 52.0 °F 36% 29.83 in 10.0 mi Variable 3.5 mph - N/A   Clear
2:53 PM 84.0 °F - 41.0 °F 22% 29.83 in 10.0 mi Variable 4.6 mph - N/A   Clear
3:53 PM 84.0 °F - 30.0 °F 14% 29.82 in 10.0 mi Calm Calm - N/A   Clear
4:53 PM 84.9 °F - 30.0 °F 14% 29.83 in 10.0 mi North 6.9 mph - N/A   Clear
5:53 PM 81.0 °F 80.5 °F 54.0 °F 39% 29.83 in 10.0 mi SSE 8.1 mph - N/A   Clear
6:53 PM 78.1 °F - 57.9 °F 50% 29.83 in 10.0 mi SSE 9.2 mph - N/A   Partly Cloudy
7:53 PM 73.9 °F - 55.0 °F 52% 29.85 in 10.0 mi NE 10.4 mph 17.3 mph N/A   Clear
8:53 PM 66.9 °F - 57.0 °F 70% 29.90 in 10.0 mi NNE 6.9 mph - N/A   Clear
9:53 PM 64.9 °F - 55.9 °F 73% 29.93 in 10.0 mi NE 9.2 mph - N/A   Clear
10:53 PM 61.0 °F - 55.0 °F 81% 29.92 in 10.0 mi NE 5.8 mph - N/A   Clear
11:53 PM 59.0 °F - 53.1 °F 81% 29.89 in 10.0 mi East 3.5 mph - N/A   Clear